Theta_e
321 321 321 321 320 320 319 319 319 319 319 318 319 320 320 321 323 324 324 325 324 321 319 319 319 319 317 317 318 320 323 323 320 321 323 324 326 324 322 323 324 325 326 328 329 329 329 330 331 331 331 331 332 332 333 332 332 332 332 332 332 331 331 330 329 328 327 326 326 327 327 327 327 327
320 320 321 321 321 320 320 319 319 320 319 318 318 319 320 319 321 323 324 324 323 321 320 318 318 318 318 318 317 319 322 321 320 320 320 322 325 323 321 322 323 323 324 324 326 327 327 328 329 330 331 331 331 332 332 332 332 332 332 332 332 332 332 331 330 329 328 327 327 326 326 326 326 327
320 321 321 320 321 321 321 320 319 319 320 318 317 318 319 319 319 321 322 323 322 320 321 319 317 318 318 318 317 318 321 321 320 320 319 322 324 323 321 323 324 323 323 322 322 323 325 326 327 328 329 330 331 331 331 331 331 332 332 332 332 332 332 332 331 330 329 329 328 327 327 327 327 326
320 321 320 320 320 320 320 319 319 319 320 319 318 318 318 318 318 319 320 323 322 320 320 320 319 318 317 317 318 318 319 320 319 319 320 321 323 322 322 323 324 324 323 322 321 320 321 323 325 327 327 328 329 330 330 330 330 331 331 332 332 332 332 331 330 330 329 329 329 329 328 328 328 327
320 320 320 321 321 320 320 320 320 320 320 320 319 319 319 318 318 318 319 322 323 320 319 319 319 318 318 317 318 318 318 318 318 318 318 319 321 322 321 323 325 324 323 322 321 320 320 320 322 324 326 327 327 328 328 329 329 329 330 330 331 331 331 330 330 329 328 328 328 328 329 329 329 329
320 320 320 321 321 321 321 321 320 320 320 320 319 319 320 319 319 319 319 320 321 320 319 319 318 318 318 317 317 317 317 317 317 316 315 316 318 320 321 323 325 324 323 322 321 320 319 318 318 319 322 324 325 326 327 327 328 328 329 329 330 330 330 330 330 329 328 328 328 328 329 329 329 329
320 320 320 321 321 321 321 321 321 321 320 319 319 319 320 320 320 320 319 318 319 320 319 319 318 318 318 317 316 317 317 317 317 316 315 315 315 317 320 322 323 323 323 323 321 320 319 318 316 316 318 320 321 322 324 325 326 327 328 328 328 329 330 330 330 330 329 329 328 328 329 329 330 330
321 320 321 321 321 321 321 321 321 321 321 320 319 319 318 318 319 319 319 318 318 319 319 319 318 319 318 317 316 317 317 317 317 316 316 316 315 316 319 320 321 322 321 321 320 320 320 319 318 317 317 317 318 318 319 320 322 324 326 327 327 327 328 329 329 330 330 329 328 328 328 329 329 330
321 321 321 321 321 321 321 321 321 321 321 320 319 319 318 317 318 318 318 319 318 318 319 319 318 318 318 317 317 317 317 318 317 315 317 318 317 317 318 318 318 319 319 320 320 320 320 320 319 319 318 317 316 316 316 316 317 319 322 325 327 327 327 327 328 328 328 329 329 329 329 329 328 328
322 322 321 321 320 320 320 321 321 321 321 321 321 320 319 318 318 318 318 318 318 318 318 318 318 317 317 316 316 317 317 318 317 316 317 318 318 318 319 319 319 319 320 321 322 322 321 319 319 319 318 318 318 318 318 318 318 318 318 320 323 325 326 326 326 327 327 328 328 329 329 329 328 327
324 323 322 322 322 321 321 321 321 321 321 321 321 320 320 319 319 318 318 317 317 318 318 318 317 318 317 316 316 316 317 317 317 317 318 318 317 317 319 320 320 320 320 320 321 321 320 319 319 319 319 319 320 320 320 320 320 319 318 318 319 321 323 324 325 326 326 326 327 327 328 328 328 328
325 324 323 323 323 322 323 322 321 321 321 321 321 321 320 320 320 319 318 318 317 318 318 317 316 316 317 317 317 316 317 318 318 318 318 317 317 318 319 319 319 319 318 319 319 320 319 319 320 320 321 321 321 321 321 321 320 319 318 318 318 319 320 322 323 324 325 325 326 326 327 327 327 328
326 326 325 324 324 324 324 323 322 322 322 322 322 322 321 320 320 319 319 319 319 318 318 318 317 317 317 318 317 316 317 318 318 317 317 317 318 318 318 318 318 318 319 319 319 318 318 318 319 320 321 322 322 322 322 322 321 320 318 318 317 317 318 320 321 322 323 324 324 325 326 326 326 326
326 326 325 325 325 325 325 324 324 323 323 322 322 322 322 321 321 321 320 319 319 319 319 319 319 319 318 317 316 317 317 317 317 316 316 317 317 317 318 318 318 317 319 319 319 318 317 317 318 319 320 321 321 322 322 322 321 320 320 319 318 316 316 318 320 321 322 322 323 324 325 325 325 325
326 326 326 326 325 325 325 325 324 324 323 323 323 322 322 322 321 322 322 321 320 320 320 319 319 320 319 318 318 318 318 317 316 316 316 317 317 317 318 319 318 317 318 318 318 318 318 317 317 317 318 320 321 322 322 322 321 320 320 320 318 316 315 316 319 320 321 321 322 322 323 324 324 325
326 325 325 326 325 325 325 325 325 325 324 323 323 322 322 321 320 320 320 321 321 321 321 321 320 319 318 318 317 317 317 317 316 316 317 317 316 316 317 318 317 317 317 317 317 317 317 317 317 317 317 317 319 321 322 321 321 321 320 319 318 316 314 315 318 319 320 320 321 322 322 323 323 323
325 325 325 325 325 325 326 326 326 326 325 324 324 323 322 321 320 319 317 318 319 320 321 322 322 321 320 319 318 318 318 318 317 317 317 317 316 315 316 317 317 317 318 317 316 316 316 316 316 316 316 316 317 320 321 321 321 321 320 319 317 316 315 315 317 319 319 320 320 321 321 321 321 321
326 325 325 325 325 325 326 326 325 325 325 325 325 324 322 321 320 318 317 317 317 317 318 319 320 320 321 321 320 319 319 318 318 318 318 317 317 316 316 317 317 318 318 317 316 317 317 316 316 316 316 316 317 318 320 321 321 320 319 318 317 317 315 315 316 318 318 318 319 319 319 319 319 318
325 326 326 325 325 324 325 326 326 325 325 324 325 325 323 322 320 319 318 317 317 317 317 317 317 317 318 319 320 319 319 318 318 319 318 318 318 317 317 317 316 316 316 315 316 317 317 316 316 316 315 315 318 319 320 321 321 320 319 318 318 317 316 315 316 317 317 317 317 318 318 318 317 317
326 326 326 327 325 324 324 326 327 326 324 323 324 324 324 323 321 319 319 319 318 318 317 317 316 316 316 316 316 316 317 318 318 318 318 318 318 317 317 316 315 315 315 315 316 317 318 317 316 316 315 315 318 320 321 321 321 320 319 318 318 317 316 315 316 316 317 317 317 317 317 317 316 316
325 325 326 326 326 325 325 325 326 325 324 323 323 323 323 324 324 322 321 321 320 319 319 318 317 317 317 316 316 315 315 316 318 318 319 319 318 318 317 316 316 316 316 317 317 318 318 318 316 316 315 314 316 318 319 320 320 319 319 318 317 317 316 316 315 316 317 316 317 317 317 317 317 316
324 324 325 325 325 325 326 325 325 325 324 323 323 323 322 323 324 324 324 323 323 322 322 322 321 321 320 318 316 315 314 314 315 316 318 319 319 318 317 317 316 316 316 316 317 319 319 318 316 315 315 315 315 315 316 318 319 319 318 318 317 317 316 315 315 316 316 316 316 316 316 316 316 316
323 323 323 324 324 324 324 324 324 323 323 322 321 322 323 323 323 324 324 324 324 323 323 323 323 323 322 320 317 316 315 314 313 314 315 317 317 317 316 316 316 317 316 316 317 318 318 317 316 316 316 316 316 315 316 317 318 318 318 317 317 316 315 314 314 315 315 315 314 314 314 314 314 314
320 320 321 322 322 323 323 322 322 322 321 321 320 320 322 323 323 323 323 324 323 323 323 323 323 322 322 322 320 319 318 316 314 314 314 315 316 316 315 315 316 316 315 315 317 317 317 316 316 316 316 316 316 317 317 317 317 318 318 317 317 316 316 315 314 313 313 313 313 313 313 312 312 312
319 319 319 319 319 320 320 320 320 320 319 319 319 319 320 321 321 322 323 323 323 323 322 322 322 322 322 322 321 320 319 318 316 315 314 314 315 315 314 314 315 315 314 315 316 317 316 316 316 315 315 315 316 316 317 318 318 318 317 318 317 317 316 316 315 314 313 313 313 313 313 312 312 311
317 318 319 319 319 320 318 317 316 316 315 314 315 316 317 317 317 318 320 320 320 321 322 321 321 321 322 322 321 319 319 318 317 317 316 315 315 314 314 314 314 314 314 314 316 317 317 316 316 315 316 316 316 316 316 317 318 318 318 318 317 317 316 316 315 315 314 314 314 313 313 313 312 311
315 317 318 317 316 316 315 313 312 311 310 310 310 311 313 313 313 314 316 317 316 318 320 321 321 322 322 322 322 321 320 320 319 319 318 317 316 315 314 314 313 314 314 314 316 317 317 316 316 316 316 317 317 317 316 316 318 319 318 318 317 317 316 316 315 315 315 314 314 314 313 313 312 311
313 314 314 312 311 311 310 310 310 309 309 309 308 309 310 311 312 313 314 315 315 316 318 320 321 322 322 323 323 322 322 322 321 320 320 319 318 317 316 315 314 314 313 313 315 317 318 317 317 316 315 316 317 317 317 316 317 319 319 318 318 317 317 316 315 315 314 314 314 314 313 313 313 312
314 313 311 309 307 306 306 306 306 307 308 308 308 307 308 311 313 312 312 314 315 315 317 318 319 320 321 322 322 322 322 323 322 322 320 319 319 318 317 317 315 314 313 313 313 315 317 318 317 316 315 315 316 317 317 317 317 318 319 319 318 318 317 316 315 315 314 314 314 314 314 313 313 312
312 311 308 305 303 304 306 308 309 309 309 310 310 309 309 311 314 315 314 315 316 316 317 318 318 319 320 321 321 321 322 323 323 322 321 320 319 318 318 317 316 315 314 313 313 313 315 316 317 317 316 316 316 317 317 317 317 317 317 318 318 318 317 316 315 315 314 314 314 314 314 313 312 311
308 308 306 303 304 307 311 314 314 314 314 314 313 312 311 312 315 318 318 318 317 317 317 317 318 319 319 320 321 321 322 322 322 322 321 319 319 319 318 317 317 317 316 315 314 313 314 314 315 316 317 317 316 316 316 316 316 317 317 317 317 317 317 317 316 315 314 314 314 314 313 313 312 311
306 307 307 306 307 311 314 315 315 316 316 315 315 314 314 315 317 319 319 318 318 317 317 318 318 319 319 320 320 320 320 320 321 321 320 319 319 319 319 318 318 317 316 316 315 315 315 315 315 316 316 316 316 316 316 316 316 316 317 317 316 316 316 316 316 315 314 314 314 313 313 312 312 312
305 307 308 309 310 313 315 314 314 314 314 315 315 315 315 316 318 319 319 318 318 318 317 318 318 318 319 319 319 319 318 319 320 320 319 318 318 318 318 318 318 318 317 317 317 317 317 317 317 317 317 316 316 316 317 317 317 316 316 317 316 316 316 316 315 315 314 314 313 313 312 312 312 312
306 307 309 310 311 312 313 312 312 312 313 314 314 314 315 315 317 319 319 318 318 318 318 318 318 318 318 318 318 318 318 319 319 320 319 319 318 317 317 318 318 318 318 318 318 318 318 318 318 318 317 316 316 317 317 317 317 317 316 316 316 316 316 315 315 315 314 314 313 312 312 311 312 312
306 307 310 311 311 311 311 310 310 310 311 311 312 312 313 314 316 317 317 318 317 317 318 318 318 318 318 318 318 318 318 318 318 318 319 319 318 317 317 317 317 318 318 317 317 317 318 319 319 318 317 316 316 316 316 316 317 316 316 316 315 315 315 315 315 314 314 314 313 312 311 311 311 310
307 309 311 311 310 309 309 309 309 309 309 310 310 310 312 313 314 314 315 316 317 317 317 317 317 317 317 317 318 318 317 317 317 317 318 319 318 318 317 317 317 317 317 317 317 317 317 318 318 317 316 316 316 316 316 316 316 316 316 316 315 315 315 315 315 314 313 313 312 311 311 311 310 309
309 311 310 309 308 308 308 309 309 309 309 309 309 310 311 311 312 312 312 314 315 315 315 315 315 315 316 317 318 317 316 316 316 316 317 318 318 318 317 317 317 316 317 317 317 316 316 317 318 318 317 317 317 316 315 315 315 315 315 315 315 314 315 315 314 313 312 312 311 311 311 310 309 308
310 309 308 308 308 308 308 308 308 308 308 309 309 309 310 310 310 311 311 312 313 313 313 313 313 314 315 316 315 314 315 316 316 315 315 316 317 317 317 317 317 317 316 316 316 316 316 316 317 317 317 317 317 317 315 315 314 314 314 314 315 314 314 314 313 312 312 311 311 310 310 309 308 306
307 306 306 308 309 308 308 308 308 308 308 308 308 308 309 309 309 310 310 310 310 311 312 312 313 314 315 314 314 314 314 315 315 315 315 315 315 316 317 317 317 317 316 316 316 315 315 315 316 316 315 315 316 316 315 314 314 315 314 314 314 315 314 313 313 312 311 311 310 309 308 307 306 305
306 305 306 307 308 308 307 307 307 307 307 307 308 308 308 308 309 309 309 309 309 310 310 311 312 313 313 313 314 313 313 314 314 315 315 315 315 316 316 316 316 316 316 316 315 315 314 315 315 315 315 315 315 315 314 314 314 315 314 314 314 314 314 313 313 312 311 310 309 307 305 304 303 303
305 306 306 307 306 306 306 306 306 307 307 308 308 308 308 309 309 309 309 309 309 309 309 310 311 311 311 312 312 312 312 313 313 313 313 314 315 315 315 314 314 315 315 315 315 315 314 314 314 315 315 315 315 313 313 314 314 313 312 312 313 313 313 313 312 311 310 310 308 306 305 304 304 302
305 306 306 306 305 305 305 306 306 306 307 307 308 308 308 308 308 308 309 309 309 309 308 309 309 310 310 310 310 310 311 312 312 312 313 313 314 314 314 314 314 314 315 315 314 315 315 314 315 315 315 314 314 312 310 310 310 309 308 309 311 312 312 312 311 310 310 309 308 307 306 305 305 303
305 305 305 305 305 305 305 305 305 306 306 306 306 306 307 307 307 307 307 308 307 307 306 306 306 306 307 307 307 307 308 310 311 311 312 312 313 313 314 314 313 313 314 314 314 314 315 315 315 315 314 314 314 312 309 308 309 308 307 307 308 310 310 310 310 310 310 309 308 308 307 306 305 304
304 304 304 304 304 304 304 304 304 305 305 305 305 305 305 305 305 305 305 305 304 303 302 302 302 302 303 303 303 304 305 306 308 309 310 311 312 312 313 313 313 312 312 313 313 313 314 314 314 314 313 313 313 312 310 309 308 308 307 306 306 307 308 308 308 309 308 307 307 306 306 305 304 304
304 304 303 303 303 303 303 303 303 303 303 303 303 303 303 303 303 303 303 302 301 300 299 299 299 299 300 300 300 301 302 303 305 307 308 310 311 312 312 312 312 311 311 312 312 313 313 314 313 313 313 313 313 312 311 310 308 307 306 305 305 305 306 306 307 306 305 304 304 304 304 304 303 302
Wind_Speed
4 3 5 4 3 6 8 5 3 3 3 5 9 11 9 6 4 3 5 4 4 8 8 6 7 8 9 5 5 6 3 2 6 3 4 6 4 6 7 5 5 3 3 3 4 6 8 9 11 11 13 14 15 17 20 20 22 25 28 31 33 34 35 34 32 31 31 31 30 30 29 29 29 29
5 6 7 6 4 5 6 5 6 4 3 1 6 11 10 7 5 3 3 4 5 11 13 10 8 9 10 4 4 5 2 1 7 4 4 6 5 7 8 6 6 5 4 3 3 4 5 6 8 10 12 13 13 14 15 15 16 19 22 27 31 34 35 35 34 33 32 32 31 31 30 30 30 30
9 9 7 6 5 6 6 6 6 6 6 5 4 7 7 7 7 5 4 3 6 13 14 13 12 8 7 5 5 4 1 3 8 6 4 6 5 5 6 6 6 5 5 5 5 5 5 5 5 7 9 11 13 14 14 13 14 16 18 22 26 31 35 36 35 35 33 32 32 32 32 31 32 32
11 10 8 7 9 8 7 7 7 8 10 10 8 7 7 6 5 6 7 4 7 14 13 13 12 9 9 8 4 4 4 7 10 7 5 7 7 7 7 7 6 5 4 5 6 7 7 6 6 6 7 8 10 13 14 14 14 14 16 18 21 26 32 35 35 35 35 34 34 34 34 33 33 32
10 11 10 10 11 10 10 9 8 9 11 11 11 10 8 8 6 7 9 7 6 11 14 14 13 12 11 7 2 4 7 8 9 9 9 9 8 8 10 9 8 6 5 5 6 9 10 9 7 6 6 7 8 9 11 13 13 14 15 16 17 19 24 30 34 35 34 34 34 34 35 35 34 32
12 13 13 13 12 11 12 11 9 8 9 8 9 11 12 12 10 10 11 8 5 8 12 13 12 12 9 4 2 4 6 7 8 9 9 8 9 10 10 8 7 7 6 6 6 9 10 10 9 8 7 7 8 8 9 10 12 13 14 15 15 15 16 19 25 30 32 33 34 33 34 35 34 33
14 16 17 17 15 13 14 13 10 10 10 9 9 12 13 14 15 15 12 9 7 7 10 11 13 15 10 5 4 4 5 7 7 7 7 8 9 10 8 7 6 7 7 6 7 9 10 10 10 10 9 8 7 8 8 9 10 11 13 13 13 14 14 14 16 20 23 27 31 33 34 34 34 34
17 18 18 16 14 14 15 15 13 12 12 12 13 15 14 13 15 16 13 11 11 10 9 10 14 17 14 9 7 6 7 8 5 5 8 9 7 7 8 8 6 7 9 9 9 9 9 9 9 9 9 10 9 9 9 9 9 10 11 12 12 13 13 13 14 16 17 19 23 27 30 33 34 34
19 19 18 15 14 15 16 17 17 16 14 15 16 16 15 13 12 13 14 15 17 15 12 12 15 16 15 13 11 11 10 8 5 5 7 6 5 7 9 9 7 10 12 13 11 9 8 9 8 9 10 10 10 10 10 10 10 10 11 11 11 12 12 12 13 14 15 16 18 21 23 27 30 32
20 19 19 19 19 20 20 19 19 18 17 17 16 14 13 13 13 12 12 13 15 16 15 15 16 15 13 13 14 14 12 12 9 6 4 3 4 7 8 6 8 10 11 11 11 10 10 9 9 10 11 10 9 9 10 10 10 10 11 11 10 10 11 11 11 12 13 14 17 19 20 21 24 26
20 20 21 21 20 20 21 21 21 20 19 18 17 16 15 15 15 15 14 13 14 14 13 13 16 16 15 16 16 14 11 14 11 6 3 1 4 7 8 7 9 10 9 10 11 10 9 10 10 11 12 12 11 10 10 9 8 9 10 10 10 9 9 9 9 11 12 12 14 15 17 19 21 23
21 22 22 22 22 21 21 20 20 20 19 18 18 18 17 17 17 17 16 15 16 16 14 14 17 18 18 17 13 10 10 12 9 4 3 0 3 6 9 10 10 11 11 11 11 9 8 10 12 13 14 14 13 12 11 9 8 8 8 8 9 9 8 7 7 9 10 11 12 12 14 16 18 21
21 22 22 23 24 24 23 22 21 19 18 18 19 19 19 19 19 19 18 16 16 16 15 16 18 19 18 16 11 10 11 10 7 4 2 1 3 6 10 12 11 12 13 13 11 10 9 10 12 13 14 14 14 14 13 10 7 6 7 8 9 10 9 7 7 8 8 9 10 11 13 15 16 18
21 22 23 23 24 24 23 23 23 23 22 21 22 21 20 20 20 19 20 19 19 18 16 16 17 15 15 17 17 16 16 12 7 5 4 3 4 6 11 12 11 10 11 13 13 10 9 10 11 12 13 14 15 15 14 12 9 7 7 9 10 12 12 9 8 7 7 8 8 9 11 13 14 15
23 23 23 24 24 24 25 25 26 27 27 26 26 26 25 24 22 20 18 18 19 19 17 17 17 13 11 14 16 15 13 11 9 9 9 9 7 6 9 9 7 6 6 8 9 9 8 9 11 13 14 15 15 15 15 13 12 10 8 9 11 13 13 11 9 8 7 8 8 9 9 10 11 12
24 24 24 25 26 25 25 25 25 27 29 30 30 30 30 30 29 27 25 22 20 18 16 15 16 16 15 16 16 13 10 9 10 10 11 12 10 7 9 10 8 8 9 9 9 11 11 11 12 15 15 14 15 15 15 15 15 13 10 10 11 12 11 11 11 9 7 7 7 7 7 7 7 8
21 21 21 22 23 24 24 23 22 22 24 27 31 33 34 34 33 32 32 30 27 23 20 17 17 18 17 17 16 13 9 7 8 9 10 10 8 8 12 13 10 10 10 11 11 13 14 13 14 16 16 15 17 19 18 18 17 15 12 11 11 10 10 11 11 10 8 7 6 6 5 5 5 5
26 25 24 25 25 24 23 24 25 25 24 25 27 30 34 36 35 34 33 32 32 30 28 26 26 25 21 18 16 14 11 10 9 7 8 8 8 10 12 12 11 12 13 15 13 12 13 13 15 17 16 13 16 20 21 21 19 15 12 11 10 9 9 9 10 10 9 8 7 6 6 5 5 5
32 29 25 26 29 29 25 23 25 28 28 26 24 24 29 33 35 36 35 34 33 33 33 34 34 34 31 27 23 19 16 15 14 11 10 10 11 11 11 12 14 17 20 20 15 13 14 14 14 15 13 11 12 15 19 20 18 15 13 11 8 8 9 9 8 9 9 10 9 8 7 6 6 5
29 27 22 22 27 29 28 24 22 22 21 21 23 25 27 29 30 32 35 35 34 34 35 36 37 37 35 33 32 27 21 18 17 15 14 14 15 14 13 14 18 20 21 22 20 18 17 15 13 12 11 10 10 11 15 18 18 15 13 11 9 8 9 9 8 9 10 10 10 8 7 6 5 5
24 25 24 23 24 27 28 26 24 22 20 21 23 24 26 27 25 26 30 33 33 34 36 37 37 38 37 36 36 33 29 24 20 17 15 16 16 16 11 11 16 19 19 21 22 22 18 16 13 11 11 11 10 10 12 16 17 16 15 13 11 10 9 9 10 10 11 11 10 8 7 6 5 5
21 21 21 23 23 24 23 21 21 21 22 23 23 23 24 25 24 27 30 29 27 28 32 34 34 35 37 38 37 36 35 32 27 24 22 19 17 16 13 11 13 17 19 20 18 19 19 17 14 11 11 13 14 15 16 17 18 18 17 14 12 10 8 8 9 10 10 10 8 7 6 5 5 5
19 19 20 21 21 20 19 17 16 16 16 18 21 23 23 22 23 29 32 29 25 24 27 30 34 35 35 35 35 35 36 36 35 33 30 26 22 18 17 15 11 10 14 17 17 20 20 17 15 13 10 8 9 13 17 20 20 20 17 14 11 9 6 6 6 8 9 8 6 5 4 4 4 4
19 19 18 18 18 18 18 18 17 16 15 15 16 17 18 20 24 28 29 27 26 25 26 29 32 34 34 33 33 35 36 37 38 37 36 33 29 24 22 20 15 12 13 15 15 19 20 15 14 14 10 5 4 5 11 16 18 18 17 14 11 9 8 5 4 5 7 7 5 4 3 2 3 3
18 18 17 18 18 18 18 19 20 19 18 17 18 17 17 20 24 25 25 24 21 21 23 25 27 30 31 31 33 36 37 38 38 39 38 37 34 31 28 24 20 19 20 19 16 17 16 13 13 13 10 9 9 8 9 13 15 17 18 16 14 12 10 7 5 5 8 8 6 4 4 2 2 2
18 19 18 18 17 17 19 21 23 23 21 20 20 20 18 18 19 20 22 23 19 18 21 23 25 28 29 28 30 33 36 37 38 38 39 39 39 37 35 31 26 23 23 21 19 19 19 15 14 13 11 10 11 11 11 12 14 18 19 18 15 13 10 7 6 6 8 9 7 5 5 3 3 3
18 19 20 20 21 22 24 25 26 26 25 25 24 22 20 18 18 19 20 20 20 21 23 22 24 27 28 27 28 30 33 36 36 37 39 40 40 39 38 37 34 31 28 23 18 18 20 17 14 13 13 12 9 8 11 12 12 17 21 19 16 14 10 8 8 7 8 9 7 6 6 6 6 5
18 19 21 24 26 26 28 28 28 28 27 27 26 24 22 20 19 19 20 20 19 19 21 21 22 24 27 29 30 31 33 34 34 35 36 37 38 38 38 38 38 36 35 30 23 19 19 18 16 15 15 15 12 9 11 12 10 14 21 21 18 16 13 13 13 11 9 9 9 8 9 8 7 6
19 20 25 29 31 32 32 31 31 31 30 29 27 25 24 23 22 20 20 20 17 16 19 21 22 24 28 32 35 35 34 32 30 30 32 33 34 35 34 35 36 37 36 35 32 27 22 20 21 19 18 18 18 15 14 14 13 13 17 20 20 20 19 18 16 12 10 10 11 11 9 8 7 7
21 24 29 33 34 33 32 30 29 29 28 27 26 24 23 24 24 24 22 20 16 16 19 20 22 25 27 31 35 35 32 28 28 29 31 32 32 33 32 31 32 33 34 36 36 34 29 25 23 21 20 20 20 20 19 16 16 16 16 17 18 19 20 21 17 13 12 12 12 11 8 6 6 6
26 30 33 35 33 30 27 26 25 24 22 22 23 23 23 23 23 23 23 22 19 19 20 21 23 24 24 25 29 30 29 29 31 33 33 32 31 33 32 29 27 28 31 33 35 35 34 32 27 23 22 21 21 21 21 19 18 17 17 17 15 14 19 22 20 16 14 13 12 11 10 8 8 7
33 34 34 31 29 26 23 22 22 22 20 19 20 22 22 22 21 21 21 21 20 20 21 22 22 22 22 23 24 23 22 25 30 33 34 35 33 31 29 24 23 24 25 27 31 32 32 33 31 27 25 24 23 22 20 19 20 20 18 18 17 14 17 23 24 20 16 14 13 13 12 11 11 11
34 33 30 26 23 22 21 19 19 19 19 19 19 19 19 19 18 17 18 19 19 20 20 21 21 21 21 22 22 21 19 19 22 24 28 32 31 29 26 23 23 25 23 23 25 28 29 30 31 29 27 24 23 23 20 17 19 20 19 19 18 15 15 22 25 22 19 17 15 13 12 12 13 13
30 27 24 22 21 20 20 19 18 18 19 18 18 18 18 18 16 16 17 19 20 21 22 23 23 23 23 22 22 20 19 19 20 19 21 25 27 27 27 25 23 24 24 23 23 24 26 27 28 27 26 23 21 22 23 20 18 19 19 18 17 16 15 20 24 23 21 20 18 15 12 11 12 14
28 23 20 19 20 21 20 19 18 18 18 18 17 19 20 19 17 16 17 19 20 22 23 24 24 24 24 24 24 24 23 21 20 20 21 23 25 25 27 26 24 24 24 25 26 25 24 24 23 20 19 18 18 18 23 25 23 20 19 18 18 17 15 18 22 22 21 20 17 14 12 10 11 15
24 21 18 18 20 21 20 20 21 22 22 21 21 22 21 20 18 18 18 19 19 20 21 22 22 23 23 23 23 23 22 22 22 21 20 21 24 25 26 25 25 25 25 26 28 27 25 23 23 18 12 10 9 10 16 25 28 25 21 19 18 17 16 18 20 21 20 19 17 14 12 10 11 15
17 17 18 19 21 22 22 24 25 25 25 25 25 24 22 21 22 21 19 18 17 16 17 19 21 24 24 22 20 19 19 19 20 19 18 20 23 24 23 21 22 23 24 25 26 27 25 24 25 22 13 7 6 7 11 21 27 29 28 25 20 17 18 20 20 20 20 18 16 14 12 10 11 15
16 18 19 19 20 22 23 24 25 25 25 25 26 25 24 24 24 23 21 20 19 18 18 20 20 21 21 20 20 21 21 19 18 18 18 18 18 20 21 20 21 22 24 23 23 25 27 25 26 26 18 8 6 8 8 12 18 25 30 29 21 17 21 23 21 19 18 15 13 12 12 11 11 14
19 20 20 19 20 21 22 22 23 23 24 24 24 24 25 26 25 25 25 25 25 24 22 20 18 18 19 20 21 22 23 21 19 20 20 18 18 19 20 19 18 20 22 23 23 25 26 25 25 27 24 18 16 15 12 13 17 22 27 29 22 19 23 26 23 20 19 17 15 13 12 11 11 12
21 22 21 20 21 22 22 22 23 24 24 24 24 24 25 25 24 24 25 27 28 26 24 21 19 17 18 19 18 18 20 21 21 20 20 19 19 19 18 18 19 20 18 19 21 22 25 26 28 29 29 28 27 22 16 15 16 17 23 28 24 20 23 26 24 23 21 20 19 17 14 12 11 11
21 21 21 22 22 23 23 23 24 25 24 24 24 25 25 24 23 24 25 25 25 25 24 24 22 21 20 20 20 20 19 19 21 21 21 20 19 18 18 19 22 20 17 16 18 21 26 29 29 27 26 25 22 15 9 8 9 11 19 26 23 19 20 23 22 22 22 22 22 20 16 13 11 10
20 20 21 22 22 23 23 23 24 25 24 24 25 25 25 24 24 25 24 23 23 23 23 23 24 24 23 24 24 24 22 20 20 21 22 20 19 17 16 18 19 19 17 17 19 23 26 27 27 26 24 21 18 13 7 7 10 13 18 22 21 19 20 20 20 20 21 23 23 21 16 13 10 10
20 19 19 20 20 21 21 22 24 25 25 25 25 25 24 24 24 25 24 22 23 23 22 23 23 23 23 24 24 24 23 22 22 23 23 22 20 18 17 18 18 18 18 18 21 23 24 25 26 27 25 23 22 19 13 13 16 19 20 21 21 21 20 19 18 19 21 22 23 21 18 14 11 9
18 17 17 18 19 20 20 22 23 23 25 25 25 24 24 24 23 22 22 21 20 21 22 23 23 22 22 23 24 24 24 23 24 24 25 25 23 20 19 21 22 20 19 19 19 21 22 22 23 24 24 24 26 25 22 20 21 23 24 24 24 24 23 21 19 19 19 20 20 18 17 16 11 8
17 16 17 18 18 19 20 21 21 23 25 26 24 23 23 22 20 20 19 18 17 19 21 22 22 22 23 23 24 24 25 25 25 24 24 26 25 22 19 20 21 20 19 17 15 16 19 20 19 22 26 27 27 28 29 27 24 26 27 27 27 27 26 25 23 21 19 18 17 15 14 14 10 7
Wind_Direction
281 284 276 268 279 306 317 331 328 300 305 316 316 313 313 318 312 318 336 333 354 17 35 73 90 54 18 359 359 351 216 164 29 18 318 328 329 340 340 334 329 316 294 279 264 256 247 247 250 250 253 252 250 250 250 251 248 245 243 239 236 235 235 232 229 230 231 231 232 233 234 235 234 233
278 277 269 263 262 280 286 302 304 266 189 213 298 303 316 323 305 315 333 298 326 353 354 3 18 7 352 355 20 6 194 119 22 17 322 307 302 335 332 316 317 322 327 323 309 294 270 258 252 249 249 250 252 255 256 257 255 251 248 244 240 236 235 234 230 228 231 232 234 235 235 236 236 235
261 257 266 280 276 274 270 277 291 268 220 200 253 277 293 320 325 319 308 286 317 330 335 345 348 338 335 346 359 345 274 9 6 1 334 303 291 323 320 296 294 304 330 339 336 331 315 296 278 263 254 248 248 253 256 259 260 256 250 248 244 237 233 233 230 228 231 233 234 235 235 236 236 237
244 242 254 270 267 263 260 259 268 267 249 230 226 234 252 277 298 294 285 267 295 311 322 336 328 309 308 314 321 319 312 345 351 341 323 307 300 310 300 280 270 269 298 323 332 336 329 319 307 290 276 263 256 256 258 261 264 264 258 253 249 242 237 237 233 229 229 232 235 236 236 236 236 237
243 243 240 248 256 253 249 249 251 265 267 245 219 211 230 241 222 236 261 267 287 304 315 326 320 310 311 306 298 327 318 320 324 315 309 303 295 295 289 272 252 248 272 293 314 327 323 317 315 309 297 284 275 269 265 264 264 265 264 260 257 252 249 246 240 234 231 231 235 237 238 237 237 236
250 246 237 237 242 247 249 246 239 253 276 271 239 226 226 227 223 223 241 265 291 299 306 313 306 299 309 331 333 319 311 301 300 302 303 297 289 289 285 269 249 250 264 275 303 321 317 308 303 304 307 299 291 285 277 273 268 265 265 264 262 261 260 254 244 239 238 237 235 236 238 240 240 238
246 246 241 234 231 238 244 239 232 238 254 262 260 258 244 229 227 224 224 241 257 277 293 299 293 286 293 332 330 300 289 281 284 298 299 290 291 294 287 270 259 260 262 272 300 315 315 308 298 295 298 300 298 297 293 287 280 273 269 267 266 263 261 258 250 246 245 242 239 238 238 240 241 241
243 244 242 234 232 237 235 234 236 236 239 241 243 251 253 241 229 221 218 226 231 240 257 272 281 282 284 295 288 265 261 255 254 290 291 276 270 282 289 286 281 274 271 278 290 302 311 311 305 303 303 302 300 300 301 298 292 285 277 271 269 266 261 258 255 252 251 249 245 243 241 241 240 240
245 245 245 243 244 246 241 237 235 230 234 243 241 240 248 254 245 228 221 223 222 220 228 250 267 274 284 286 263 237 231 224 221 268 287 282 264 271 279 277 279 281 278 275 273 277 297 304 306 311 312 310 307 305 304 300 296 292 286 279 271 266 263 260 258 256 254 250 248 247 247 245 242 239
253 253 252 248 243 243 243 240 234 230 234 241 244 249 255 259 259 249 237 233 228 220 221 237 249 252 264 273 266 252 228 211 218 234 249 296 302 301 295 270 267 277 277 276 270 267 280 293 299 304 304 303 304 306 306 303 301 299 296 291 281 268 263 261 259 259 255 251 249 248 249 249 246 244
254 254 254 253 249 243 241 240 238 235 232 233 238 247 252 252 253 257 254 248 247 243 237 244 253 254 254 254 261 265 232 208 219 223 180 159 307 314 311 289 278 277 273 279 278 272 283 292 290 290 292 291 291 293 296 298 307 311 305 297 288 278 270 264 261 260 257 255 253 251 251 252 250 248
251 252 253 255 257 257 254 252 250 241 232 231 233 233 238 244 248 251 249 241 242 248 248 251 255 258 258 251 248 252 224 198 197 194 154 145 292 296 294 287 283 274 264 267 267 263 275 288 287 283 281 279 277 278 279 283 300 313 312 306 299 291 282 272 267 266 261 258 256 253 251 251 249 248
249 250 252 253 254 258 261 260 259 254 243 237 235 232 234 239 241 240 240 241 245 247 243 242 243 244 251 257 254 250 235 204 179 178 185 239 273 286 288 281 275 271 264 257 252 252 262 274 282 282 278 273 272 270 263 261 276 297 309 317 317 310 297 279 267 267 265 261 257 251 247 246 247 248
252 251 253 254 253 254 255 254 253 253 251 244 240 238 234 234 238 238 233 232 239 245 243 241 241 237 241 251 250 243 235 219 214 242 247 219 234 277 286 276 273 281 269 248 245 254 258 261 270 278 276 271 268 264 257 253 257 269 289 307 314 313 302 285 270 264 262 260 257 254 251 250 251 252
250 252 253 255 256 255 255 254 251 249 250 249 246 243 237 233 236 241 240 234 232 237 242 246 249 247 245 250 249 243 231 218 224 241 235 217 214 253 278 274 278 293 273 248 254 265 260 259 268 271 270 267 262 255 255 258 257 256 271 294 306 309 299 283 273 267 261 260 258 256 257 256 258 259
251 251 252 252 254 256 255 255 254 250 249 249 248 247 244 241 240 241 245 247 245 243 247 255 258 258 262 264 265 268 257 230 223 227 224 211 201 226 258 262 265 268 265 270 279 277 268 265 269 268 265 264 258 249 250 256 252 251 266 288 302 307 298 281 272 269 267 266 262 260 261 261 265 268
274 272 270 267 263 259 254 254 256 256 255 253 252 250 247 246 245 245 244 245 248 248 250 257 259 256 259 263 263 264 261 249 240 232 224 210 200 227 250 257 263 260 258 271 284 282 273 263 261 264 262 260 256 247 242 241 238 242 259 278 292 302 299 283 269 265 268 269 266 265 265 267 269 272
279 279 283 289 289 281 271 264 261 259 257 255 256 257 253 249 246 245 243 242 243 245 245 249 253 252 253 256 259 257 257 265 267 247 231 230 235 246 247 252 262 260 259 270 277 277 272 262 256 257 258 266 265 251 239 232 229 236 250 262 278 293 295 286 270 263 265 269 269 266 265 273 277 277
278 275 276 281 285 284 283 282 276 269 262 256 256 258 259 257 252 248 245 242 241 241 241 243 246 248 249 249 253 255 255 257 260 254 247 246 251 258 260 263 270 269 268 267 257 249 256 255 251 254 262 276 270 246 233 229 229 235 243 248 261 279 285 283 268 257 260 265 267 264 260 267 272 276
281 281 280 277 279 278 277 278 279 276 269 263 259 256 256 259 258 254 252 250 247 245 244 244 245 247 248 246 247 251 250 250 253 254 253 249 247 254 263 266 263 263 268 263 242 230 240 244 241 253 267 274 262 234 226 227 226 231 238 241 246 259 267 271 262 251 251 253 256 259 261 261 264 271
288 288 287 285 287 284 278 274 276 279 276 269 263 258 256 258 256 252 252 254 255 253 252 251 251 252 253 251 249 249 247 246 245 244 245 242 237 236 238 244 246 248 261 261 237 220 227 234 234 249 263 265 264 250 237 232 228 231 236 235 236 243 249 256 256 249 244 245 248 254 258 259 262 272
304 301 298 298 297 292 287 287 287 286 281 271 264 260 259 256 252 250 251 252 253 253 255 256 255 255 255 254 253 252 250 248 244 240 239 237 232 232 232 238 246 249 261 264 235 212 220 227 225 238 251 254 259 257 247 238 231 228 227 224 227 239 247 248 247 239 237 244 248 248 251 254 261 272
315 311 310 310 305 298 296 299 298 291 281 271 266 264 259 251 247 252 255 252 248 249 254 255 251 249 251 252 253 253 253 251 247 242 240 237 234 237 242 245 249 250 258 259 234 211 214 219 221 230 236 242 257 250 237 233 230 224 222 223 226 230 229 227 232 233 235 239 241 245 259 268 274 282
322 320 320 321 319 315 314 315 312 303 295 289 284 275 263 253 253 258 261 259 255 254 257 257 253 249 249 249 248 247 248 249 248 243 240 237 234 235 238 242 244 244 250 255 238 215 211 214 221 227 227 232 260 241 224 229 231 223 219 223 222 212 204 209 223 223 218 216 217 234 261 285 301 303
321 321 323 323 323 324 324 323 321 316 310 303 295 288 279 272 269 266 263 261 258 254 253 256 257 256 253 248 245 243 242 245 246 243 239 237 235 233 233 233 236 242 246 251 246 229 220 218 220 223 227 235 247 251 235 227 227 223 221 221 219 210 205 210 216 207 204 205 210 224 237 265 305 287
316 315 318 320 319 317 317 316 313 312 310 305 297 292 290 291 293 286 273 266 262 256 251 249 250 253 252 245 241 240 239 241 242 241 239 238 235 233 232 231 232 236 240 245 247 236 225 219 219 221 222 227 239 252 247 234 228 226 223 219 215 213 207 199 203 218 222 223 227 228 228 238 248 232
317 312 312 314 312 309 309 309 307 306 306 303 300 296 291 292 302 307 298 283 269 260 254 245 239 241 242 240 237 235 235 237 238 238 239 238 235 234 234 233 233 235 236 241 246 235 222 219 221 222 222 225 233 247 252 252 237 215 209 209 210 212 208 195 195 213 233 240 241 228 223 237 248 242
317 313 313 315 314 311 310 307 305 303 302 301 300 298 293 289 292 300 303 297 283 267 257 248 241 239 239 239 237 235 236 238 238 236 236 236 235 236 237 235 234 233 234 237 239 234 226 225 230 231 227 227 227 230 247 261 246 201 192 197 205 212 211 204 203 209 223 240 246 234 230 246 259 252
316 314 316 317 316 313 311 309 305 303 301 300 299 298 294 291 289 290 296 297 287 270 259 251 246 245 244 244 244 243 241 239 235 231 231 232 234 235 236 236 234 233 234 234 235 235 233 234 238 238 232 228 229 230 238 252 253 223 197 194 205 213 213 209 208 207 206 217 233 240 244 259 261 245
317 314 315 315 315 315 315 313 310 307 305 303 300 296 293 289 287 285 287 285 276 267 264 259 252 250 250 250 251 249 244 236 232 228 224 224 225 225 225 227 231 234 235 234 234 233 232 235 240 238 229 224 227 231 234 240 248 246 232 216 208 206 207 210 211 207 200 205 220 235 245 255 251 230
317 317 317 318 319 321 321 320 316 312 311 308 304 300 296 292 288 284 282 280 275 268 265 263 260 260 260 258 256 251 241 233 233 231 222 216 216 217 217 219 225 230 232 232 233 233 232 234 237 236 228 223 225 230 236 240 243 248 250 241 223 204 203 207 209 208 204 204 213 223 227 233 240 244
320 321 322 322 324 320 316 315 316 315 314 312 310 307 302 297 292 284 277 276 275 270 266 267 271 274 275 273 270 266 253 239 234 230 221 215 214 214 212 213 218 222 225 227 229 231 232 232 232 234 232 230 229 229 232 237 241 243 247 246 241 229 208 200 201 203 201 201 209 214 217 227 239 248
322 323 321 319 318 313 308 310 314 316 317 315 314 313 310 305 296 282 269 266 270 267 261 262 268 272 276 277 279 283 283 270 255 242 227 218 214 211 208 211 215 215 214 215 217 221 226 227 228 230 233 236 236 231 228 232 237 239 241 241 240 236 214 198 197 197 195 199 204 204 211 229 238 237
321 319 315 312 309 307 307 309 308 309 309 308 308 313 313 307 299 285 272 268 270 267 261 261 264 267 270 274 276 279 282 280 276 267 248 231 221 212 208 213 217 214 210 207 209 214 218 220 223 226 230 236 242 236 230 231 235 237 241 239 235 232 216 197 192 192 195 201 201 198 211 230 225 218
318 315 310 309 310 309 310 313 316 319 320 319 322 323 318 311 306 300 295 290 285 279 273 268 265 264 267 271 271 271 270 270 271 270 258 242 230 220 215 215 215 213 209 208 210 211 210 209 211 212 218 231 245 243 234 231 230 232 237 238 236 231 211 190 189 192 194 197 196 196 208 213 198 202
314 315 313 313 318 323 327 332 338 339 337 335 333 328 324 323 321 319 315 311 303 294 286 279 273 271 273 270 266 268 271 272 272 270 260 244 234 229 225 222 219 216 214 213 213 213 210 206 200 194 195 217 231 236 235 231 228 226 227 229 232 226 204 184 185 187 184 185 187 193 207 214 200 202
309 317 322 324 331 339 344 345 345 342 339 338 335 331 331 332 330 328 327 324 320 315 311 306 299 293 289 280 271 270 272 268 267 271 269 255 242 236 233 230 226 223 221 220 216 212 210 206 198 194 197 209 210 217 233 233 230 228 224 222 224 217 196 179 173 175 178 183 188 193 208 218 205 202
324 329 334 339 346 350 349 346 343 340 339 338 336 335 336 335 333 334 337 334 329 325 321 315 304 296 296 294 285 277 271 262 259 267 271 263 251 245 244 239 232 227 226 225 219 211 207 202 199 198 198 203 217 221 218 219 225 227 223 220 217 204 187 176 168 169 179 188 192 198 211 215 202 196
336 338 344 352 354 351 346 342 339 336 336 336 336 337 339 338 338 342 345 342 337 331 325 318 308 299 298 298 290 283 279 273 268 266 266 265 260 256 254 252 247 241 232 225 220 215 210 208 207 206 204 207 218 221 211 208 222 229 223 215 208 193 184 180 172 170 178 186 188 191 196 195 189 188
343 344 348 353 352 348 345 342 340 337 337 338 338 340 342 341 342 344 345 342 340 338 337 336 331 323 315 310 308 307 301 294 288 280 272 269 265 259 257 259 260 257 246 232 224 220 217 217 218 217 216 218 222 225 221 216 220 220 211 205 201 193 189 187 180 175 179 185 187 184 178 174 176 183
349 349 350 352 351 348 345 343 341 340 341 341 341 341 341 340 340 341 341 341 341 341 343 345 345 342 339 336 336 333 322 309 302 296 288 280 271 262 256 253 251 251 250 240 231 228 225 223 222 224 224 220 216 217 218 208 192 181 185 190 191 188 188 189 186 183 183 184 183 180 176 178 183 185
355 353 351 352 350 347 345 343 341 341 342 342 341 341 341 340 339 339 340 342 345 346 346 347 346 344 345 346 345 341 333 323 315 308 301 295 288 278 264 251 243 240 239 235 235 239 239 234 231 230 226 213 199 190 187 188 177 167 170 177 180 180 183 186 187 187 185 184 183 180 177 179 183 185
356 352 349 348 347 346 345 343 341 341 342 343 342 342 343 342 341 341 341 343 345 345 344 343 342 340 338 338 338 336 333 328 323 318 310 301 294 288 277 266 257 249 243 242 245 247 248 243 235 226 218 209 201 195 188 182 177 170 166 167 170 172 175 180 184 184 183 184 187 189 188 188 187 191
349 347 347 345 343 344 344 343 341 341 341 341 341 340 340 338 337 337 339 340 341 343 342 341 340 339 336 334 333 330 326 323 320 317 311 302 295 288 280 273 265 256 250 253 255 254 254 250 235 219 211 209 205 198 192 189 182 175 172 170 168 168 169 170 173 176 177 177 180 185 192 196 195 195
344 346 346 343 341 342 344 344 342 340 339 339 338 335 334 333 332 333 335 336 338 343 345 342 338 334 332 332 332 330 327 323 317 312 308 303 296 289 283 279 270 260 255 258 263 264 259 249 234 220 215 215 211 203 200 196 186 176 172 170 169 170 171 170 170 168 165 164 168 175 186 195 198 197